Location: ????????
(55.0559°N, 39.1270°E)
Time: 17:53:07
(UTC+00:00)

CZ-2C R/B - Pass Details

Date: 15 November 2025
Orbit: 664 x 773 km, 98.4° (Epoch: 14 December)

Event Time Altitude Azimuth Distance (km) Brightness Sun altitude
Rises 01:34:00 0° 16° (NNE) 3,208 6.0 -28.5°
Reaches altitude 10° 01:36:18 10° 19° (NNE) 2,293 5.2 -28.2°
Maximum altitude 01:41:21 71° 104° (ESE) 814 2.6 -27.4°
Enters shadow 01:42:35 51° 168° (SSE) 966 2.9 -27.3°
